Location: Aressy
(43.2833°N, 0.3167°W)
Time: 19:10:26
(UTC+00:00)

CZ-4C R/B - Pass Details

Date: 28 January 2021
Orbit: 617 x 1385 km, 63.4° (Epoch: 02 March)

Event Time Altitude Azimuth Distance (km) Brightness Sun altitude
Rises 19:50:19 0° 323° (NW) 3,636 6.0 -29.6°
Reaches altitude 10° 19:53:34 10° 341° (NNW) 2,831 5.1 -30.1°
Enters shadow 19:56:58 19° 11° (NNE) 2,382 4.4 -30.8°
